Flag for Botswana Weather past 2 weeks in Francistown, Botswana

Now
54 °F

Sunny.


Feels Like: 54 °F
Forecast: 50 / 74 °F
Wind: 1 mph from North

Location: Francistown Airport

Current Time: Jun 30, 2015 at 8:18:13 AM

Latest Report: Jun 30, 2015 at 8:00 AM


Visibility: 10 mi

Pressure: 30.27 "Hg

Humidity: 58%

Dew point: 39 °F

Location of FrancistownLocation

Historic Weather in Francistown — Graph

°F

Francistown temperature yesterday

Maximum temperature yesterday: 82 °F (at 3:00 PM)
Minimum temperature yesterday: 45 °F (at 5:00 AM)
Average temperature yesterday: 63 °F

Past Weeks' High & Low Weather Summary

 TemperatureHumidityPressure
High82 °F (Jun 29, 3:00 PM)100% (Jun 28, 5:00 AM)30.48 "Hg (Jun 28, 5:00 AM)
Low25 °F (Jun 18, 7:00 AM)11% (Jun 16, 3:00 PM)30.01 "Hg (Jun 17, 3:00 PM)
Average58 °F47%30.25 "Hg
* Reported Jun 15 7:00 AM — Jun 30 7:00 AM, Francistown, Weather by CustomWeather, © 2015

Note: Actual official high and low records may vary slightly from our data, if they occured in-between our weather recording intervals... More about our weather records

Advertising

Francistown weather history for previous 24 hours

 ConditionsComfort  
Time TempWeatherWind HumidityBarometerVisibility
7:00 AM
Tue, Jun 30
41 °FSunny.3 mph76%30.27 "Hg10 mi
6:00 AM41 °FSunny.2 mph76%30.24 "Hg10 mi
5:00 AM46 °FClear.2 mph71%30.24 "Hg10 mi
4:00 AM48 °FClear.7 mph66%30.24 "Hg10 mi
1:00 AM50 °FPassing clouds.3 mph62%30.24 "HgN/A
12:00 AM54 °FClear.3 mph54%30.24 "Hg10 mi
11:00 PM
Mon, Jun 29
52 °FClear.3 mph50%30.24 "Hg10 mi
10:00 PM57 °FClear.3 mph48%30.24 "Hg10 mi
9:00 PM55 °FClear.3 mph44%30.21 "Hg10 mi
8:00 PM66 °FClear.3 mph37%30.21 "Hg10 mi
7:00 PM63 °FClear.6 mph37%30.21 "Hg10 mi
6:00 PM72 °FClear.3 mph29%30.18 "Hg10 mi
5:00 PM79 °FClear.3 mph24%30.18 "Hg10 mi
4:00 PM81 °FSunny.6 mph23%30.18 "Hg10 mi
3:00 PM82 °FSunny.8 mph21%30.18 "Hg10 mi
2:00 PM81 °FPassing clouds.6 mph23%30.18 "HgN/A
1:00 PM79 °FSunny.5 mph28%30.21 "Hg10 mi
12:00 PM79 °FSunny.3 mph28%30.24 "Hg10 mi
11:00 AM77 °FSunny.3 mph32%30.30 "Hg10 mi
10:00 AM72 °FSunny.1 mph36%30.30 "Hg10 mi
9:00 AM64 °FSunny.3 mph46%30.30 "Hg10 mi
8:00 AM54 °FSunny.6 mph63%30.30 "Hg10 mi
Weather by CustomWeather, © 2015

See weather overviewHow to use our weather pages